User: anonymous   Login
Location: Prairie State College
(41.5244°N, 87.6382°W)
Time: 03:43:01
(UTC-05:00)
Language:

Cosmos 1140 Rocket - Orbit

View from above orbital plane
View from above orbital plane
View from above satellite
View from above satellite

Ground track
Ground track

The orbit data is extracted from the following two-line orbital elements,

1 11574U 79089B   15208.15397353  .00000068  00000-0  29597-4 0  9993
2 11574 074.0690 054.4502 0015367 137.9621 222.2717 14.40485081877636
Epoch (UTC): 27 July 2015 03:41:43
Eccentricity: 0.0015367
inclination: 74.0690°
perigee height: 746 km
apogee height: 768 km
right ascension of ascending node: 54.4502°
argument of perigee: 137.9621°
revolutions per day: 14.40485081
mean anomaly at epoch: 222.2717°
orbit number at epoch: 87763

The dashed part of the orbit path shows where the satellite is in the earth's shadow,  

DLR